This is the latest recevied weather packets stored in our database for station/object KY0TEQ-13. If no packets are shown the sender has not sent any weather packets the latest 10 day(s).
| Time | Temp. | Humidity | Pressure | Rain* | Wind** | Luminosity | Snow |
|---|---|---|---|---|---|---|---|
| 1788543640 | 23.33° C | 38% | 1309.9 hPa | 0 mm | - | 801 W/m² | - |
| 1788543339 | 23.89° C | 36% | 1309.9 hPa | 0 mm | - | 716 W/m² | - |
| 1788543035 | 23.33° C | 39% | 1310 hPa | 0 mm | - | 643 W/m² | - |
| 1788542731 | 23.89° C | 37% | 1310 hPa | 0 mm | - | 630 W/m² | - |
| 1788542431 | 23.33° C | 37% | 1310 hPa | 0 mm | - | 626 W/m² | - |
| 1788542126 | 22.78° C | 38% | 1310.1 hPa | 0 mm | - | 624 W/m² | - |
| 1788541822 | 22.78° C | 39% | 1310 hPa | 0 mm | - | 621 W/m² | - |
| 1788541517 | 22.22° C | 41% | 1310.2 hPa | 0 mm | - | 610 W/m² | - |
| 1788541214 | 22.22° C | 40% | 1310.1 hPa | 0 mm | - | 615 W/m² | - |
| 1788540912 | 20.56° C | 44% | 1310.4 hPa | 0 mm | - | 623 W/m² | - |
| 1788540611 | 20.56° C | 44% | 1310.4 hPa | 0 mm | - | 327 W/m² | - |
| 1788540306 | 20.56° C | 44% | 1310.1 hPa | 0 mm | - | 160 W/m² | - |
| 1788540002 | 20.56° C | 44% | 1309.9 hPa | 0 mm | - | 543 W/m² | - |
| 1788539702 | 20.56° C | 45% | 1310 hPa | 0 mm | - | 126 W/m² | - |
| 1788539402 | 20.56° C | 46% | 1310.4 hPa | 0 mm | - | 180 W/m² | - |
| 1788539097 | 20.56° C | 44% | 1310.1 hPa | 0 mm | - | 140 W/m² | - |
| 1788538792 | 20° C | 45% | 1310.1 hPa | 0 mm | - | 141 W/m² | - |
| 1788538488 | 20.56° C | 46% | 1309.9 hPa | 0 mm | - | 127 W/m² | - |
| 1788538183 | 20.56° C | 46% | 1309.7 hPa | 0 mm | - | 191 W/m² | - |
| 1788537877 | 20.56° C | 45% | 1309.9 hPa | 0 mm | - | 394 W/m² | - |
| 1788537573 | 20.56° C | 45% | 1309.6 hPa | 0 mm | - | 202 W/m² | - |
| 1788537268 | 20° C | 48% | 1309.9 hPa | 0 mm | - | 145 W/m² | - |
| 1788536966 | 20° C | 48% | 1309.7 hPa | 0 mm | - | 129 W/m² | - |
| 1788536660 | 20° C | 47% | 1309.7 hPa | 0 mm | - | 174 W/m² | - |
| 1788536356 | 20.56° C | 47% | 1309.7 hPa | 0 mm | - | 443 W/m² | - |
* Rain latest hour (hover to see other rain measurements)
** Current wind speed in m/s (hover to see current wind gust speed)